Location: Asheville, NC
(35.6000°N, 82.5500°W)
Time: 20:08:40
(UTC-04:00)

Vanguard 1 Rocket - Pass Details

Date: 16 March 2018
Orbit: 653 x 4224 km, 34.3° (Epoch: 24 June)

Event Time Altitude Azimuth Distance (km) Brightness Sun altitude
Rises 20:05:41 0° 262° (W) 3,786 12.8 -6.3°
Reaches altitude 10° 20:07:46 10° 262° (W) 3,079 11.8 -6.7°
Maximum altitude 20:15:31 84° 175° (S) 1,772 8.8 -8.3°
Enters shadow 20:30:19 12° 90° (E) 5,593 10.7 -11.3°
Drops below altitude 10° 20:31:26 10° 90° (E) 5,907 - -11.5°
Sets 20:37:13 0° 90° (E) 7,447 - -12.7°
